Location: Antioch Baptist Church
(32.7160°N, 96.7483°W)
Time: 18:23:12
(UTC+00:00)

CENTAUR R/B - Pass Details

Date: 05 December 2023
Orbit: 677 x 1508 km, 63.4° (Epoch: 26 January)

Event Time Altitude Azimuth Distance (km) Brightness Sun altitude
Rises 12:34:42 0° 336° (NNW) 4,273 5.4 -8.5°
Reaches altitude 10° 12:37:40 10° 344° (NNW) 3,402 5.0 -7.9°
Maximum altitude 12:45:38 41° 52° (NE) 2,028 4.5 -6.3°
Drops below altitude 10° 12:54:10 10° 119° (ESE) 3,658 7.4 -4.7°
Sets 12:57:26 0° 127° (SE) 4,623 8.1 -4.1°
